Location: Casteau
(50.5142°N, 4.0161°E)
Time: 21:03:05
(UTC+00:00)

Tiros 1 - Pass Details

Date: 07 August 2021
Orbit: 630 x 663 km, 48.4° (Epoch: 28 September)

Event Time Altitude Azimuth Distance (km) Brightness Sun altitude
Rises 18:55:39 0° 273° (W) 2,988 12.2 2.4°
Reaches altitude 10° 18:58:01 10° 270° (W) 2,072 11.2 2.1°
Maximum altitude 19:02:45 64° 190° (S) 727 7.4 1.4°
Drops below altitude 10° 19:07:25 10° 109° (ESE) 2,049 9.1 0.7°
Sets 19:09:45 0° 107° (ESE) 2,953 9.9 0.4°
Enters shadow 19:09:52 - 107° (ESE) 2,995 9.9 0.3°
